Location: Whispering Pines Observatory
(39.4020°N, 104.7430°W)
Time: 21:23:26
(UTC-06:00)

MOS 1 Rocket - Visible Passes

Search period start: 17 April 2015 00:00
Search period end: 27 April 2015 00:00
Orbit: 617 x 832 km, 97.4° (Epoch: 17 April)

Date Brightness Start Highest point End Pass type
(mag) Time Alt. Az. Time Alt. Az. Time Alt. Az.
17 Apr 3.6 20:33:14 10° SSE 20:38:27 87° ENE 20:43:54 10° N visible
17 Apr 6.5 22:16:17 10° W 22:17:36 11° W 22:18:33 10° WNW visible
18 Apr 5.3 21:23:36 10° SSW 21:28:16 32° W 21:33:03 10° NNW visible
19 Apr 3.6 20:34:11 10° SSE 20:39:27 90° ESE 20:44:56 10° NNW visible
19 Apr 6.5 22:17:43 10° W 22:18:38 10° W 22:19:07 10° WNW visible
20 Apr 5.3 21:24:37 10° SSW 21:29:17 31° W 21:34:02 10° NNW visible
21 Apr 3.7 20:35:09 10° SSE 20:40:27 87° WSW 20:45:57 10° NNW visible
22 Apr 5.4 21:25:38 10° SSW 21:30:18 30° W 21:35:01 10° NNW visible
23 Apr 3.7 20:36:07 10° S 20:41:27 84° WSW 20:46:58 10° NNW visible
24 Apr 5.5 21:26:40 10° SSW 21:31:19 29° W 21:35:58 10° NW visible
25 Apr 3.8 20:37:04 10° S 20:42:27 81° WSW 20:47:57 10° NNW visible
26 Apr 5.5 21:27:42 10° SSW 21:32:20 28° W 21:36:55 10° NW visible
